Location: Newark
(12.4436°N, 0.6167°W)
Time: 16:44:58
(UTC+00:00)

Vanguard 2 - Pass Details

Date: 09 December 2019
Orbit: 553 x 2938 km, 32.9° (Epoch: 21 January)

Event Time Altitude Azimuth Distance (km) Brightness Sun altitude
Rises 10:03:12 0° 294° (WNW) 5,908 11.7 45.4°
Reaches altitude 10° 10:07:54 10° 289° (WNW) 4,525 11.2 46.1°
Maximum altitude 10:18:34 43° 223° (SW) 1,880 10.2 47.6°
Drops below altitude 10° 10:25:09 10° 152° (SSE) 2,804 11.4 48.5°
Sets 10:27:25 0° 145° (SE) 3,519 11.6 48.8°
